Location: Chimay
(50.0486°N, 4.3171°E)
Time: 00:03:31
(UTC+00:00)

Cosmos 1763 Rocket - Pass Details

Date: 08 August 2020
Orbit: 732 x 780 km, 74.0° (Epoch: 23 September)

Event Time Altitude Azimuth Distance (km) Brightness Sun altitude
Rises 20:40:06 0° 340° (NNW) 3,272 8.0 -12.2°
Reaches altitude 10° 20:42:41 10° 349° (N) 2,344 6.9 -12.5°
Maximum altitude 20:47:35 36° 55° (NE) 1,236 4.5 -13.1°
Enters shadow 20:51:05 17° 113° (ESE) 1,888 5.0 -13.5°
